EW4964 Weather Reports


Display with metric or nautical units.
time (UTC)temp
F
wind
direction
speed
MPH
gust
MPH
rain 1hr
in
rain 24hr
in
rain mn
in
humidity
%
barometer
mb
20201127150021 34 265 2.0 4.0 0.00 0.02 0.02 93 1019.8
20201127144522 36 45 0.0 2.0 0.00 0.02 0.02 93 1020.1
20201127143011 35 0 0.0 0.0 0.00 0.02 0.02 93 1020.1
20201127141512 36 225 0.0 2.0 0.00 0.02 0.02 93 1020.3
20201127140020 37 34 1.0 2.0 0.00 0.02 0.02 93 1020.2
20201127134514 37 44 1.0 3.0 0.00 0.02 0.02 93 1020.1
20201127133019 37 45 1.0 3.0 0.00 0.02 0.02 93 1020.3
20201127131513 37 124 1.0 2.0 0.00 0.02 0.02 93 1020.1
20201127130018 36 34 0.0 3.0 0.00 0.02 0.02 93 1020.4
20201127124520 36 204 1.0 2.0 0.00 0.02 0.02 93 1020.0
20201127123011 37 224 1.0 2.0 0.00 0.02 0.02 93 1020.3
20201127121518 37 11 0.0 2.0 0.00 0.02 0.02 93 1020.4
20201127120011 36 299 0.0 2.0 0.00 0.02 0.02 93 1020.3
20201127114523 36 231 1.0 3.0 0.00 0.02 0.02 92 1020.1
20201127113013 36 306 1.0 2.0 0.00 0.02 0.02 92 1020.0
20201127111516 35 337 0.0 2.0 0.00 0.02 0.02 92 1020.5
20201127110016 34 315 0.0 2.0 0.00 0.02 0.02 92 1020.4
20201127104514 35 275 2.0 4.0 0.00 0.02 0.02 92 1020.3
20201127103012 35 268 2.0 4.0 0.00 0.02 0.02 92 1020.5
20201127101513 36 297 1.0 3.0 0.00 0.02 0.02 92 1020.6
20201127100015 36 270 2.0 4.0 0.00 0.02 0.02 92 1020.8
20201127094517 35 146 1.0 3.0 0.01 0.02 0.02 91 1020.9
20201127093016 35 242 0.0 2.0 0.02 0.02 0.02 91 1021.1
20201127091511 34 181 1.0 3.0 0.02 0.02 0.02 91 1021.0
20201127090010 34 181 1.0 2.0 0.02 0.02 0.02 91 1020.9
20201127084513 34 0 0.0 0.0 0.01 0.01 0.01 91 1021.3
20201127083014 34 181 0.0 2.0 0.00 0.00 0.00 91 1020.8
20201127081513 34 0 0.0 0.0 0.00 0.00 0.00 91 1020.8
20201127080024 34 0 0.0 0.0 0.00 0.00 0.00 91 1020.8
20201127074518 34 225 0.0 2.0 0.00 0.00 0.00 91 1020.8
20201127073034 33 0 0.0 0.0 0.00 0.00 0.00 91 1020.5
20201127071523 33 0 0.0 0.0 0.00 0.00 0.00 91 1020.5
20201127070023 33 0 0.0 0.0 0.00 0.00 0.00 91 1020.6
20201127064523 33 0 0.0 0.0 0.00 0.00 0.00 91 1020.6
20201127063024 33 0 0.0 0.0 0.00 0.00 0.00 91 1020.3
20201127061515 33 0 0.0 0.0 0.00 0.00 0.00 91 1020.3
20201127060022 33 0 0.0 0.0 0.00 0.00 0.00 91 1020.2
20201127054518 33 0 0.0 0.0 0.00 0.00 0.00 91 1020.3
20201127053023 33 0 0.0 0.0 0.00 0.00 0.00 91 1020.3
20201127051520 33 0 0.0 0.0 0.00 0.00 0.00 91 1020.2
20201127050019 33 0 0.0 0.0 0.00 0.00 0.00 91 1019.9
20201127044521 33 0 0.0 0.0 0.00 0.00 0.00 90 1020.1
20201127043020 33 0 0.0 0.0 0.00 0.00 0.00 90 1020.3
20201127041520 33 0 0.0 0.0 0.00 0.00 0.00 90 1020.3
20201127040022 32 0 0.0 0.0 0.00 0.00 0.00 90 1020.2
20201127034518 31 0 0.0 0.0 0.00 0.00 0.00 89 1020.4
20201127033016 31 0 0.0 0.0 0.00 0.00 0.00 89 1020.2
20201127031511 30 0 0.0 0.0 0.00 0.00 0.00 88 1020.1
20201127030023 29 0 0.0 0.0 0.00 0.00 0.00 88 1020.1
20201127024517 29 0 0.0 0.0 0.00 0.00 0.00 88 1019.8
20201127023017 29 0 0.0 0.0 0.00 0.00 0.00 88 1020.2
20201127021524 29 0 0.0 0.0 0.00 0.00 0.00 88 1020.3
20201127020025 29 0 0.0 0.0 0.00 0.00 0.00 88 1020.5
20201127014516 29 0 0.0 0.0 0.00 0.00 0.00 88 1020.5
20201127013021 29 0 0.0 0.0 0.00 0.00 0.00 88 1020.5
20201127011518 28 0 0.0 0.0 0.00 0.00 0.00 88 1020.6
20201127010023 28 0 0.0 0.0 0.00 0.00 0.00 87 1020.7
20201127004517 28 0 0.0 0.0 0.00 0.00 0.00 87 1020.4
20201127003012 28 0 0.0 0.0 0.00 0.00 0.00 87 1020.4
20201127001513 28 0 0.0 0.0 0.00 0.00 0.00 87 1020.4
20201127000020 28 0 0.0 0.0 0.00 0.00 0.00 87 1020.5
20201126234521 28 0 0.0 0.0 0.00 0.00 0.00 87 1020.6
20201126233020 28 0 0.0 0.0 0.00 0.00 0.00 87 1020.6
20201126231516 28 0 0.0 0.0 0.00 0.00 0.00 87 1020.7
20201126230018 28 0 0.0 0.0 0.00 0.00 0.00 87 1020.8
20201126224517 28 0 0.0 0.0 0.00 0.00 0.00 87 1020.8
20201126223028 28 0 0.0 0.0 0.00 0.00 0.00 87 1021.0
20201126221519 28 0 0.0 0.0 0.00 0.00 0.00 87 1021.1
20201126220012 28 0 0.0 0.0 0.00 0.00 0.00 87 1021.3
20201126214515 28 0 0.0 0.0 0.00 0.00 0.00 87 1021.2
20201126213012 28 0 0.0 0.0 0.00 0.00 0.00 88 1021.1
20201126211518 28 0 0.0 0.0 0.00 0.00 0.00 88 1021.1
20201126210025 28 0 0.0 0.0 0.00 0.00 0.00 88 1021.1
20201126204511 28 0 0.0 0.0 0.00 0.00 0.00 88 1021.4
20201126203010 28 0 0.0 0.0 0.00 0.00 0.00 88 1021.4
20201126201513 28 0 0.0 0.0 0.00 0.00 0.00 88 1021.3
20201126200010 28 0 0.0 0.0 0.00 0.00 0.00 88 1021.2
20201126194523 28 0 0.0 0.0 0.00 0.00 0.00 88 1021.6
20201126193023 28 0 0.0 0.0 0.00 0.00 0.00 88 1021.4
20201126191531 28 0 0.0 0.0 0.00 0.00 0.00 88 1021.4
20201126190020 28 0 0.0 0.0 0.00 0.00 0.00 88 1021.6
20201126184510 28 0 0.0 0.0 0.00 0.00 0.00 88 1021.5
20201126183010 28 0 0.0 0.0 0.00 0.00 0.00 88 1021.6
20201126181513 28 0 0.0 0.0 0.00 0.00 0.00 88 1021.5
20201126180023 28 0 0.0 0.0 0.00 0.00 0.00 89 1021.3
20201126174513 28 0 0.0 0.0 0.00 0.00 0.00 89 1021.2
20201126173016 28 0 0.0 0.0 0.00 0.00 0.00 89 1021.1
20201126171516 28 0 0.0 0.0 0.00 0.00 0.00 89 1021.2
20201126170021 28 0 0.0 0.0 0.00 0.00 0.00 89 1021.1
20201126164513 28 0 0.0 0.0 0.00 0.00 0.00 89 1021.2
20201126163015 28 0 0.0 0.0 0.00 0.00 0.00 89 1020.9
20201126161516 28 0 0.0 0.0 0.00 0.00 0.00 89 1020.9
20201126160021 28 0 0.0 0.0 0.00 0.00 0.00 89 1020.8
20201126154548 28 0 0.0 0.0 0.00 0.00 0.00 89 1021.2
20201126153012 28 0 0.0 0.0 0.00 0.00 0.00 89 1021.0
20201126151518 28 0 0.0 0.0 0.00 0.00 0.00 89 1021.3